User: anonymous   Login
Location: Champs
(48.8539°N, 2.6040°E)
Time: 17:26:20
(UTC+00:00)
Language:

FENGYUN 1C DEB - Orbit

View from above orbital plane
View from above orbital plane
View from above satellite
View from above satellite

Ground track
Ground track

The orbit data is extracted from the following two-line orbital elements,

1 31879U 99025CKE 22221.10949155  .00000244  00000-0  78694-4 0  9994
2 31879  99.7137 280.0738 0225376 321.1329  37.3830 14.37003182456323
Epoch (UTC): 09 August 2022 02:37:40
Eccentricity: 0.0225376
inclination: 99.7137°
perigee height: 607 km
apogee height: 929 km
right ascension of ascending node: 280.0738°
argument of perigee: 321.1329°
revolutions per day: 14.37003182
mean anomaly at epoch: 37.3830°
orbit number at epoch: 45632

The dashed part of the orbit path shows where the satellite is in the earth's shadow,  

DLR